"Pseudo-MPEC" for A10bMLz

Created 2019 Jan 27 22:20:18 UT using Find_Orb

Click here for an explanation of pseudo-MPECs

TLEs are available for this object, and for some of the other objects on these pages. Be warned that the TLEs for this particular object may not be all that good.

This is a small, very light object of the sort I've been referring to as Empty Trash-Bag Objects, or ETBOs. Judging by its brightness, this object might be a few meters across, in which case its mass appears to be under a kilogram. Note that those are very approximate values. In particular, the last observations shown below, from Peter Birtwhistle at (J95) Great Shefford, show a considerable drop in brightness (Peter says that the mag 21.7 value shouldn't be trusted much, but even with that tossed, it indicates a fainter, and therefore smaller, object.)

At present, we have no idea as to the origin of this object. That's mostly because its past trajectory is really uncertain. As with an empty trash bag blowing down the street, it may zig and zag in unpredictable ways. The nominal orbit, though, suggests that this object has generally had a much higher perigee; it dropped to within a few hundred kilometers on this most recent perigee. I don't see any recent lunar flybys, and wouldn't speculate on when it might hit the earth or moon or leave the earth-moon system.

The retrograde orbit was originally very puzzling. Almost all artsats above low-earth orbit are in prograde orbits. I thought this might just be an old bit of junk that went past the moon and got its orbit flipped around. But the huge non-grav forces on this object probably did the job instead. Run this object back a few months, and you have a prograde orbit of the sort at which nobody would have blinked.

The data currently fit nicely with a three-parameter non-grav fit. For this, we take the usual radial term and add an "along-orbit" A2 term at right angles to it, and an "out of the orbit plane" A3 term at right angles to them both. (Almost the same thing is done for comets, except that the force varies in a more complicated way with distance from the sun and the A3 term is usually negligible.)

The two "sideways" forces are about a quarter the magnitude of the radial force, which seems reasonable. The object is directing some of the sunlight hitting it off at an angle, instead of reflecting it evenly. And/or it absorbs some sunlight, rotates a bit, and re-radiates it. (This is basically the Yarkovsky effect.)

While this model currently fits nicely, that may just reflect a lack of the data required to rubbish it. You can get a good fit to almost any dataset if you add enough parameters. Or as John von Neumann put it :

If you allow me four free parameters I can build a mathematical model that describes exactly everything that an elephant can do. If you allow me a fifth free parameter, the model I build will forecast that the elephant will fly.

So tomorrow's data may rubbish tonight's orbit.

 
 Astrometry: 
     A10bMLz  CK190125:063802744103.00929730+51.53778865         16.92RU     I41
     A10bMLz  CK190125:063832725103.00175582+51.53629207         16.92RU     I41
     A10bMLz  C2019 01 25q)s;?T#k'\6Astrometry0p1A;qd8'Xx[Ni[Ne;Wbfa6'D_rLAb\T05
     A10bMLz  C2019 01 25yLTQ-(@BW`7h$O8+0]D(cfjyX=W?brhTJO7DqH*c6-gfELP\q2E7T05
     A10bMLz  C2019 01 256V:$ed./YJmB`/\V\-h\xD[Gr7C.n]fYt[eT_XvEY`3v\o)%+'#fT05
     A10bMLz  C2019 01 25bJ_dD@ORYbO$A5^.1uWncO#O1y-6\Yx,c+8l]qT2PO!4]fco4cX=T05
     A10bMLz  C2019 01 25VN==mredacted;ZH+L_W[L-dMun_q(OC6Nq+m(Z0E'jGfp,w+X^pT05
     A10bMLz  C2019 01 256OrjM.?DnfL(PK/@LOjYMvk1lQE_r-PH%@ug9?5%F=UKOx0@W]pHL01
     A10bMLz  C2019 01 25fgC4FcgW]#7)tFTUvRepcH@fp\tg+)es))]J:t'Q#x1WNBD[DdG:L01
     A10bMLz  C2019 01 25E(k(1(R%ZWY6/EG]ci[D3yF'EA:a^2`fXBQ:NW=bhPxwuE4^ho]UL01
     A10bMLz  C2019 01 25.=rH]PDijra[Bclick83?33-L!/1JlHq$S%A%'YUKwV;XxSF=AYJL01
     A10bMLz  C2019 01 25G!UZZa[6f7jcm+vk9BbZ!fM5F)5P+\Q17egrbl9R/`7+QP'm0(Y7L01
     A10bMLz  C2019 01 25C:k[%2-_5oQN!;58@C(4S0GE\M?i6y3QDH0VUpk$!t%/q=):E=H/L01
     A10bMLz KC2019 01 25(e3/$D@Y:1];+Xn4OxNNov]ZC)0?cuuv_@%3Z6KPvgbD!7B*elZ$345
     A10bMLz KC2019 01 25TFHTAMBUm+nZm86^5@I'T-XfnFEdye2.,:P;2CGZ#:LmSa3VBh\*345
     A10bMLz KC2019 01 25eG\hereQUBE_]1(^k_SrS,3@bVby:=G8o/]pEhKAhdYSlqy+Jq80345
     A10bMLz KC2019 01 25T8sG0B0m806=QX'd1M60Y`'qq2*Dp[C(Of8vXHfvTDWrV+.@IHitB04
     A10bMLz KC2019 01 25Or1W!QpR0r,L==yMH-mfVoVP)*Hx^6M0+2SUc'6I.Sg-inN0KC@UB04
     A10bMLz KC2019 01 25RrJ7^$FA(9E6F2w'UkUepx+%/^^q,kDW(([)_V1R!!RgxYCi4b:gB04
     A10bMLz KC2019 01 25)0PMg2/oHY4'-YfEIU-cvU)v3a[q1C_xR;mUfortN///ei)0l8q/B04
     A10bMLz KC2019 01 25ldJW-cU9%InSwX,t'O#7A;cP)DB:8u`=ccMVBv%vM]83W@c51**NB04
     A10bMLz KC2019 01 25-hf-+)JX:m.?i5V[Ig!fgJa;_u4qWxXE?e*i=\K5%;E;3*i].PyH595
     A10bMLz KC2019 01 25[^pf;_)1v.GU#FpAYg%IJhS#6Yj/o0`QHVqcoukbv!fBqa8A%c/X595
     A10bMLz KC2019 01 25Anli$cSs=(?Y$@yFka^\'!k:A6+RxFMl8=JUJwr,,06+0\F3@(nu595
     A10bMLz KC2019 01 25;:Ba-91b=/5I%u3pD,'1cexplanation%!7h=T\fpPcW]VCtRiw1595
     A10bMLz KC2019 01 25.85809506 39 38.86 +49 11 26.3    ~1PLI 17.3 GVNEOCPJ95
     A10bMLz KC2019 01 25.86005906 39 33.21 +49 11 20.4    ~1PLI 17.3 GVNEOCPJ95
     A10bMLz KC2019 01 25.86261106 39 25.85 +49 11 12.3    ~1PLI 17.4 GVNEOCPJ95
     A10bMLz KC2019 01 25.86497406 39 19.01 +49 11 04.3    ~1PLI 17.5 GVNEOCPJ95
     A10bMLz  CK190125:2105070  099.64225   +49.17129            17.5 GV     Z80
     A10bMLz  CK190125:2109070  099.60837   +49.16747            17.3 GV     Z80
     A10bMLz  CK190125:2113070  099.57416   +49.16344            17.2 GV     Z80
     A10bMLz  CK190125:2117070  099.54003   +49.15929            17.5 GV     Z80
     A10bMLz  CK190125:2121070  099.50582   +49.15493            17.2 GV     Z80
     A10bMLz  CK190125:2125070  099.47109   +49.15042                  V     Z80
     A10bMLz  CK190125:235811   099.93376   +48.90261            17.4 Vq     W34
     A10bMLz  CK190126:000619   099.87661   +48.91116            17.6 Vq     W34
     A10bMLz  CK190126:001337   099.82382   +48.91828            17.5 Vq     W34
     A10bMLz  CK190126:003044   099.69613   +48.93307            17.2 Vq     W34
     A10bMLz  CK190127:21071618 093.51560   +45.48795            21.7 GV     J95
     A10bMLz  CK190127:21134261 093.48622   +45.48388            20.8 GV     J95
     A10bMLz  CK190127:21214215 093.45015   +45.47787            20.3 GV     J95

Station data:
(345) Sobaeksan Optical Astronomy Observatory  (N36.934554 E128.457500)
   South Korea.
(595) Farra d'Isonzo  (N45.915734 E13.525780)  Italy.  Observers L.
   Bittesini, F. Fabris, E. Pettarin, F. Piani. Measurer E. Pettarin. 0.30-m
   f/4.5 reflector + CCD.
(B04) OAVdA, Saint-Barthelemy  (N45.789693 E7.478510)  Italy.  Observer A.
   Carbognani. 0.81-m f/7.9 reflector + CCD.
(I41) Palomar Mountain--ZTF  (N33.357340 W116.859780)  US/California.
   Observer A. U. Tomatic. Measurers H.-W. Lin, F. J. Masci, D. Streaks,
   Q.-Z. Ye.
(J95) Great Shefford  (N51.474969 W1.447003)  UK.  Observer P. Birtwhistle.
(L01) Višnjan Observatory, Tičan  (N45.290900 E13.749300)  Croatia.
   Observers K. Korlević, E. Pettarin. Measurer E. Pettarin. 1.0-m f/2.9
   reflector + CCD.
(T05) ATLAS-HKO, Haleakala  (N20.707582 W156.257008)  US/Hawaii.  Observers
   L. Denneau, A. Heinze, H. Weiland, J. Tonry, H. Flewelling, A.
   Fitzsimmons, D. Young, B. Stalder. Measurers L. Denneau, A. Heinze, J.
   Tonry. 0.5-m f/2.0 Schmidt + CCD.
(W34) Squirrel Valley Observatory, Columbus  (N35.225393 W82.154700)
   US/North Carolina.  Observer R. L. Flynn.
(Z80) Northolt Branch Observatory  (N51.554661 W0.371920)  UK.  Observer G.
   Wells. Measurer D. Bamberger.

Orbital elements:  A10bMLz
   Perigee 2019 Jan 24.013862 +/- 0.000621 TT =  0:19:57 (JD 2458507.513862)
A1: 1.46e-5 +/- 2.11e-7   A2: -3.38e-6 +/- 1.65e-7   A3: 3.81e-6 +/- 8.89e-8 AU/day^2
Epoch 2019 Jan 25.0 TT = JDT 2458508.5                        Gray
M  24.18911887 +/- 0.050            (J2000 equator)
n  24.52914412 +/- 0.0372           Peri.  308.41594 +/- 0.006
a253210.615 +/- 256                 Node   233.64302 +/- 0.0020
e   0.9723339 +/- 4.51e-5           Incl.  121.56224 +/- 0.0018
P  14.68d                  H 29.8   G  0.15   U 10.5
q 7005.34773 +/- 5.93    Q 499415.883 +/- 515
From 42 observations 2019 Jan. 25-27; mean residual 0".309
Residuals in arcseconds: 
190125 I41 .208+ 9.5m-    190125 345 .177+ .518+    190125 J95 .159+ .145+
190125 I41 .428+ .072+    190125 345 .581- .024-    190125 Z80 .064+ .017-
190125 T05 .267- .236+    190125 B04 .492- .049+    190125 Z80 .549+ .013-
190125 T05 .246- .199+    190125 B04 .224+ .869-    190125 Z80 .377+ .133-
190125 T05 .383- .093+    190125 B04 .019+ .061+    190125 Z80 .498+ .049-
190125 T05 .089+ .245+    190125 B04 .361- .427+    190125 Z80 .519+ .084-
190125 T05 .537- .255+    190125 B04 .125+ .217-    190125 Z80 .612- .021-
190125 L01 .268- .282+    190125 595 .306- .011-    190125 W34 .163- .040-
190125 L01 .356- .409+    190125 595 .157- .071-    190126 W34 .267+ .077+
190125 L01 .413- .230+    190125 595 .390- 1.1m+    190126 W34 .024- .088-
190125 L01 .418- .146+    190125 595 .414- .068+    190126 W34 .209+ .115-
190125 L01 .367- .492+    190125 J95 .144- .012+    190127 J95 .190+ .934-
190125 L01 .384- .318+    190125 J95 .046- .051+    190127 J95 .223- .238+
190125 345 .019- .178+    190125 J95 .093+ .121+    190127 J95 .472+ .260-

